Weather History for Fort Rucker / Ozark, AL

Change the Weather History Date:

Monday, April 28, 2014

  Actual Average (KDHN) Record (KDHN)
Temperature  
Mean Temperature 76 °F 69 °F  
Max Temperature 87 °F 82 °F 90 °F (1948)
Min Temperature 64 °F 57 °F 46 °F (2004)
Degree Days  
Heating Degree Days 0 1  
Month to date heating degree days 68  
Since 1 July heating degree days 1838  
Cooling Degree Days 10 5  
Month to date cooling degree days 79  
Year to date cooling degree days 110  
Growing Degree Days 26 (Base 50)    
Moisture  
Dew Point 68 °F    
Average Humidity 82    
Maximum Humidity 97    
Minimum Humidity 51    
Precipitation  
Precipitation 0.00 in 0.07 in 1.51 in (1945)
Month to date precipitation 3.37  
Year to date precipitation 18.65  
Sea Level Pressure  
Sea Level Pressure 29.84 in    
Wind  
Wind Speed 6 mph (South)    
Max Wind Speed 18 mph    
Max Gust Speed 26 mph    
Visibility 7 miles    
Events Fog    
T = Trace of Precipitation, MM = Missing Value Source: NWS Daily Summary

Daily Weather History Graph

Daily Weather History Graph

Search for Another Location

Airport:

Trip Planner

Search our weather history database for the weather conditions in past years. The results will help you decide how hot, cold, wet, or windy it might be!

Date:

Astronomy

Apr. 28, 2014 Rise Set
Actual Time 6:00 AM CDT 7:20 PM CDT
Civil Twilight 5:35 AM CDT 7:46 PM CDT
Nautical Twilight 5:04 AM CDT 8:16 PM CDT
Astronomical Twilight 4:33 AM CDT 8:48 PM CDT
Moon 5:34 AM CDT 6:59 PM CDT
Length of Visible Light 14h 10m
Length of Day
13h 19m
Waning Crescent, 0% of the Moon is Illuminated
Apr 28
Waning Crescent
Apr 29
New
May 6
First Quarter
May 14
Full
May 21
Last Quarter

Hourly Weather History & Observations

Time (CDT) Temp. Heat Index Dew Point Humidity Pressure Visibility Wind Dir Wind Speed Gust Speed Precip Events Conditions
12:53 AM 64.0 °F - 59.0 °F 84% 29.88 in 10.0 mi South 4.6 mph - N/A   Clear
1:53 AM 64.0 °F - 61.0 °F 90% 29.86 in 10.0 mi Calm Calm - N/A   Scattered Clouds
2:02 AM 64.0 °F - 61.0 °F 90% 29.87 in 10.0 mi Calm Calm - N/A   Mostly Cloudy
2:17 AM 64.9 °F - 62.1 °F 90% 29.87 in 10.0 mi Calm Calm - N/A   Scattered Clouds
2:51 AM 64.4 °F - 62.6 °F 94% 29.86 in 8.0 mi South 3.5 mph - N/A   Scattered Clouds
2:53 AM 64.9 °F - 63.0 °F 93% 29.85 in 8.0 mi South 3.5 mph - N/A   Mostly Cloudy
3:41 AM 66.9 °F - 64.9 °F 93% 29.84 in 5.0 mi Variable 5.8 mph - N/A   Overcast
3:53 AM 68.0 °F - 66.0 °F 93% 29.84 in 4.0 mi South 6.9 mph - N/A   Overcast
4:05 AM 68.0 °F - 66.0 °F 93% 29.85 in 1.8 mi South 8.1 mph - N/A   Overcast
4:25 AM 68.0 °F - 66.9 °F 96% 29.85 in 0.5 mi South 5.8 mph - N/A Fog Fog
4:53 AM 68.0 °F - 66.9 °F 96% 29.84 in 0.5 mi South 3.5 mph - N/A Fog Fog
5:53 AM 69.1 °F - 68.0 °F 96% 29.85 in 1.0 mi South 4.6 mph - N/A   Mist
6:45 AM 70.0 °F - 69.1 °F 97% 29.87 in 2.0 mi South 5.8 mph - N/A   Overcast
6:53 AM 70.0 °F - 69.1 °F 97% 29.86 in 2.5 mi South 4.6 mph - N/A   Overcast
7:11 AM 71.1 °F - 69.1 °F 93% 29.87 in 3.0 mi South 4.6 mph - N/A   Overcast
7:21 AM 71.1 °F - 69.1 °F 93% 29.87 in 3.0 mi South 4.6 mph - N/A   Overcast
7:53 AM 72.0 °F - 70.0 °F 93% 29.86 in 4.0 mi South 6.9 mph - N/A   Overcast
8:22 AM 73.0 °F - 70.0 °F 90% 29.87 in 5.0 mi South 6.9 mph - N/A   Overcast
8:31 AM 73.9 °F - 71.1 °F 91% 29.88 in 6.0 mi SSW 6.9 mph - N/A   Overcast
8:34 AM 73.9 °F - 70.0 °F 87% 29.88 in 6.0 mi South 9.2 mph - N/A   Overcast
8:42 AM 75.0 °F - 70.0 °F 84% 29.88 in 6.0 mi South 10.4 mph - N/A   Haze
8:53 AM 75.9 °F - 71.1 °F 85% 29.88 in 7.0 mi South 11.5 mph - N/A   Overcast
9:14 AM 75.9 °F - 70.0 °F 82% 29.88 in 7.0 mi South 9.2 mph - N/A   Overcast
9:53 AM 78.1 °F - 70.0 °F 76% 29.88 in 7.0 mi SSW 8.1 mph 18.4 mph N/A   Overcast
10:53 AM 82.0 °F 85.9 °F 70.0 °F 67% 29.88 in 10.0 mi SSW 17.3 mph 23.0 mph N/A   Mostly Cloudy
11:01 AM 82.0 °F 85.5 °F 69.1 °F 65% 29.88 in 10.0 mi SSW 13.8 mph 23.0 mph N/A   Mostly Cloudy
11:22 AM 84.0 °F 88.4 °F 70.0 °F 63% 29.87 in 10.0 mi SSW 13.8 mph 19.6 mph N/A   Mostly Cloudy
11:53 AM 84.9 °F 89.4 °F 70.0 °F 61% 29.86 in 10.0 mi SSW 11.5 mph - N/A   Partly Cloudy
1:53 PM 87.1 °F 89.9 °F 66.9 °F 51% 29.84 in 10.0 mi SSW 18.4 mph 25.3 mph N/A   Mostly Cloudy
2:53 PM 84.9 °F 87.6 °F 66.9 °F 55% 29.81 in 10.0 mi SSW 16.1 mph 26.5 mph N/A   Mostly Cloudy
3:53 PM 86.0 °F 88.8 °F 66.9 °F 53% 29.79 in 10.0 mi SSW 15.0 mph 21.9 mph N/A   Mostly Cloudy
5:53 PM 82.9 °F 85.8 °F 68.0 °F 60% 29.76 in 10.0 mi SW 11.5 mph - N/A   Scattered Clouds
6:53 PM 81.0 °F 83.8 °F 68.0 °F 65% 29.75 in 10.0 mi SSW 12.7 mph - N/A   Mostly Cloudy
7:53 PM 79.0 °F - 69.1 °F 72% 29.78 in 10.0 mi South 9.2 mph - N/A   Scattered Clouds
8:22 PM 78.1 °F - 69.1 °F 74% 29.77 in 10.0 mi South 9.2 mph - N/A   Overcast
8:53 PM 78.1 °F - 70.0 °F 76% 29.76 in 10.0 mi South 9.2 mph - N/A   Overcast
9:51 PM 77.0 °F - 71.6 °F 83% 29.76 in 10.0 mi SSW 9.2 mph - N/A   Overcast
10:53 PM 77.0 °F - 71.1 °F 82% 29.78 in 10.0 mi South 9.2 mph - N/A   Mostly Cloudy
11:37 PM 75.9 °F - 71.1 °F 85% 29.77 in 10.0 mi South 10.4 mph - N/A   Overcast
11:53 PM 75.9 °F - 71.1 °F 85% 29.76 in 10.0 mi South 10.4 mph - N/A   Overcast